• en France
  • Liste des pays
  • À 7 jours
  • Température de l'eau
  • Carte satellitaire
  • Carte météo
  • Widgets météo
  • user-avatar
    Se connecter

    Météo par heure à Loubomo

    Ce jour, 14 Décembre, Jeudi

    Heure Température Précipitation Vent Pression Humidité
    00:00 +21°C° 0 mm 0 m/s 700 mmHg 53%
    01:00 +20°C° 0 mm 0 m/s 700 mmHg 57%
    02:00 +20°C° 0 mm 0 m/s 700 mmHg 61%
    03:00 +19°C° 0 mm 0 m/s 700 mmHg 65%
    04:00 +19°C° 0 mm 0 m/s 700 mmHg 69%
    05:00 +19°C° 0 mm 0 m/s 700 mmHg 73%
    06:00 +19°C° 0 mm 0 m/s 700 mmHg 77%
    07:00 +20°C° 0 mm 0 m/s 701 mmHg 74%
    08:00 +23°C° 0 mm 0 m/s 701 mmHg 63%
    09:00 +26°C° 0 mm 0 m/s 701 mmHg 53%
    10:00 +29°C° 0 mm 0 m/s 702 mmHg 42%
    11:00 +33°C° 0 mm 1 m/s 701 mmHg 36%
    12:00 +34°C° 0 mm 1 m/s 701 mmHg 30%
    13:00 +35°C° 0 mm 1 m/s 701 mmHg 28%
    14:00 +35°C° 0 mm 1 m/s 700 mmHg 27%
    15:00 +34°C° 0 mm 1 m/s 700 mmHg 26%
    16:00 +34°C° 0 mm 1 m/s 699 mmHg 25%
    17:00 +31°C° 0 mm 1 m/s 699 mmHg 31%
    18:00 +29°C° 0 mm 1 m/s 699 mmHg 38%
    19:00 +24°C° 0 mm 0 m/s 699 mmHg 44%
    20:00 +24°C° 0 mm 0 m/s 699 mmHg 47%
    21:00 +25°C° 0 mm 1 m/s 700 mmHg 50%
    22:00 +24°C° 0 mm 1 m/s 700 mmHg 54%
    23:00 +24°C° 0 mm 1 m/s 700 mmHg 59%

    Demain, 15 Décembre, Vendredi

    Heure Température Précipitation Vent Pression Humidité
    00:00 +23°C° 0 mm 1 m/s 700 mmHg 64%
    01:00 +23°C° 0 mm 1 m/s 700 mmHg 70%
    02:00 +22°C° 0 mm 1 m/s 700 mmHg 74%
    03:00 +20°C° 0 mm 0 m/s 700 mmHg 79%
    04:00 +20°C° 0 mm 0 m/s 699 mmHg 83%
    05:00 +22°C° 0 mm 1 m/s 700 mmHg 85%
    06:00 +22°C° 0 mm 1 m/s 700 mmHg 86%
    07:00 +23°C° 0 mm 1 m/s 700 mmHg 88%
    08:00 +25°C° 0 mm 1 m/s 701 mmHg 79%
    09:00 +27°C° 0 mm 1 m/s 701 mmHg 70%
    10:00 +29°C° 0 mm 1 m/s 701 mmHg 61%
    11:00 +31°C° 0 mm 1 m/s 701 mmHg 52%
    12:00 +33°C° 0 mm 1 m/s 701 mmHg 44%
    13:00 +33°C° 0 mm 0 m/s 700 mmHg 36%
    14:00 +32°C° 0 mm 0 m/s 700 mmHg 36%
    15:00 +32°C° 0 mm 0 m/s 699 mmHg 36%
    16:00 +31°C° 0 mm 0 m/s 698 mmHg 36%
    17:00 +31°C° 0 mm 1 m/s 698 mmHg 43%
    18:00 +29°C° 0 mm 1 m/s 698 mmHg 49%
    19:00 +27°C° 0 mm 1 m/s 698 mmHg 56%
    20:00 +26°C° 0 mm 1 m/s 699 mmHg 57%
    21:00 +25°C° 0 mm 1 m/s 699 mmHg 59%
    22:00 +25°C° 0 mm 1 m/s 700 mmHg 61%
    23:00 +24°C° 0 mm 1 m/s 699 mmHg 65%

    Après-demain, 16 Décembre, Samedi

    Heure Température Précipitation Vent Pression Humidité
    00:00 +23°C° 0 mm 1 m/s 699 mmHg 70%
    01:00 +23°C° 0 mm 1 m/s 699 mmHg 74%
    02:00 +22°C° 0 mm 1 m/s 699 mmHg 79%
    03:00 +22°C° 0 mm 1 m/s 699 mmHg 84%
    04:00 +22°C° 0 mm 1 m/s 699 mmHg 89%
    05:00 +22°C° 0 mm 1 m/s 699 mmHg 89%
    06:00 +23°C° 0 mm 1 m/s 700 mmHg 89%
    07:00 +23°C° 0 mm 1 m/s 700 mmHg 89%
    08:00 +25°C° 0 mm 1 m/s 701 mmHg 79%
    09:00 +27°C° 0 mm 1 m/s 701 mmHg 69%
    10:00 +29°C° 0 mm 1 m/s 702 mmHg 59%
    11:00 +31°C° 0 mm 1 m/s 701 mmHg 50%
    12:00 +33°C° 0 mm 1 m/s 700 mmHg 41%
    13:00 +35°C° 0 mm 1 m/s 700 mmHg 32%
    14:00 +35°C° 0 mm 1 m/s 699 mmHg 33%
    15:00 +34°C° 0 mm 1 m/s 698 mmHg 34%
    16:00 +31°C° 0 mm 0 m/s 697 mmHg 35%
    17:00 +31°C° 0 mm 1 m/s 698 mmHg 41%
    18:00 +29°C° 0 mm 1 m/s 698 mmHg 47%
    19:00 +27°C° 0 mm 1 m/s 698 mmHg 54%
    20:00 +26°C° 0 mm 1 m/s 698 mmHg 58%
    21:00 +25°C° 0 mm 1 m/s 699 mmHg 63%
    22:00 +25°C° 0 mm 1 m/s 699 mmHg 67%
    23:00 +24°C° 0 mm 1 m/s 699 mmHg 73%

    17 Décembre, Dimanche

    Heure Température Précipitation Vent Pression Humidité
    00:00 +24°C° 0 mm 1 m/s 699 mmHg 79%
    01:00 +23°C° 0 mm 1 m/s 699 mmHg 85%
    02:00 +23°C° 0 mm 1 m/s 699 mmHg 88%
    03:00 +23°C° 0 mm 1 m/s 699 mmHg 90%
    04:00 +23°C° 0 mm 1 m/s 699 mmHg 92%
    05:00 +23°C° 0 mm 1 m/s 699 mmHg 91%
    06:00 +23°C° 0 mm 1 m/s 700 mmHg 91%
    07:00 +23°C° 0 mm 1 m/s 700 mmHg 90%
    08:00 +25°C° 0 mm 1 m/s 701 mmHg 81%
    09:00 +26°C° 0 mm 1 m/s 701 mmHg 72%
    10:00 +28°C° 0 mm 2 m/s 702 mmHg 62%
    11:00 +30°C° 0 mm 1 m/s 701 mmHg 54%
    12:00 +32°C° 0 mm 1 m/s 700 mmHg 45%
    13:00 +34°C° 0 mm 1 m/s 700 mmHg 37%
    14:00 +34°C° 0 mm 1 m/s 699 mmHg 36%
    15:00 +34°C° 0 mm 1 m/s 698 mmHg 35%
    16:00 +33°C° 0 mm 1 m/s 697 mmHg 35%
    17:00 +31°C° 0 mm 1 m/s 698 mmHg 42%
    18:00 +29°C° 0 mm 1 m/s 698 mmHg 49%
    19:00 +27°C° 0 mm 1 m/s 698 mmHg 56%
    20:00 +26°C° 0 mm 1 m/s 698 mmHg 59%
    21:00 +25°C° 0 mm 1 m/s 699 mmHg 63%
    22:00 +25°C° 0 mm 1 m/s 700 mmHg 66%
    23:00 +24°C° 0 mm 1 m/s 699 mmHg 72%

    18 Décembre, Lundi

    Heure Température Précipitation Vent Pression Humidité
    00:00 +24°C° 0 mm 1 m/s 699 mmHg 78%
    01:00 +23°C° 0 mm 2 m/s 699 mmHg 85%
    02:00 +23°C° 0 mm 1 m/s 699 mmHg 86%
    03:00 +23°C° 0 mm 1 m/s 699 mmHg 87%
    04:00 +23°C° 0 mm 1 m/s 700 mmHg 88%
    05:00 +23°C° 0 mm 1 m/s 700 mmHg 88%
    06:00 +23°C° 0 mm 1 m/s 700 mmHg 89%
    07:00 +23°C° 0 mm 1 m/s 701 mmHg 89%
    08:00 +25°C° 0 mm 1 m/s 701 mmHg 80%
    09:00 +26°C° 0 mm 1 m/s 701 mmHg 71%
    10:00 +28°C° 0 mm 1 m/s 702 mmHg 62%
    11:00 +31°C° 0 mm 1 m/s 701 mmHg 52%
    12:00 +33°C° 0 mm 1 m/s 700 mmHg 42%
    13:00 +35°C° 0 mm 1 m/s 700 mmHg 32%
    14:00 +34°C° 0 mm 1 m/s 699 mmHg 34%
    15:00 +34°C° 0 mm 1 m/s 698 mmHg 35%
    16:00 +33°C° 0 mm 1 m/s 697 mmHg 36%
    17:00 +31°C° 0 mm 1 m/s 698 mmHg 42%
    18:00 +29°C° 0 mm 1 m/s 698 mmHg 48%
    19:00 +27°C° 0 mm 1 m/s 698 mmHg 54%
    20:00 +26°C° 0 mm 1 m/s 698 mmHg 58%
    21:00 +25°C° 0 mm 1 m/s 699 mmHg 62%
    22:00 +24°C° 0 mm 1 m/s 699 mmHg 66%
    23:00 +24°C° 0 mm 1 m/s 699 mmHg 72%

    19 Décembre, Mardi

    Heure Température Précipitation Vent Pression Humidité
    00:00 +23°C° 0 mm 1 m/s 699 mmHg 78%
    01:00 +23°C° 0 mm 1 m/s 699 mmHg 84%
    02:00 +23°C° 0 mm 1 m/s 699 mmHg 85%
    03:00 +23°C° 0 mm 1 m/s 699 mmHg 87%
    04:00 +23°C° 0 mm 1 m/s 699 mmHg 88%
    05:00 +23°C° 0 mm 1 m/s 700 mmHg 88%
    06:00 +23°C° 0 mm 1 m/s 700 mmHg 88%
    07:00 +23°C° 0 mm 1 m/s 700 mmHg 88%
    08:00 +25°C° 0 mm 1 m/s 701 mmHg 79%
    09:00 +27°C° 0 mm 1 m/s 701 mmHg 70%
    10:00 +29°C° 0 mm 1 m/s 701 mmHg 61%
    11:00 +31°C° 0 mm 1 m/s 701 mmHg 53%
    12:00 +32°C° 0 mm 1 m/s 700 mmHg 45%
    13:00 +34°C° 0 mm 1 m/s 699 mmHg 37%
    14:00 +33°C° 0 mm 1 m/s 699 mmHg 40%
    15:00 +32°C° 0 mm 1 m/s 698 mmHg 42%
    16:00 +31°C° 0 mm 1 m/s 697 mmHg 45%
    17:00 +29°C° 0 mm 1 m/s 698 mmHg 50%
    18:00 +28°C° 0 mm 1 m/s 698 mmHg 54%
    19:00 +27°C° 0 mm 1 m/s 698 mmHg 59%
    20:00 +26°C° 0 mm 1 m/s 699 mmHg 62%
    21:00 +25°C° 0 mm 1 m/s 699 mmHg 65%
    22:00 +24°C° 0 mm 1 m/s 699 mmHg 68%
    23:00 +24°C° 0 mm 1 m/s 699 mmHg 74%
    Voir plus